Theta_e
306 306 306 306 306 306 306 306 306 306 306 306 306 306 306 306 307 307 307 307 307 309 310 310 312 314 315 315 314 314 314 314 314 314 314 315 315 317 318 318 319 319 318 318 317 317 316 315 316 320 324 326 326 326 328 327 327 330 326 324 329 330 325 318 315 320 326 328 329 328 328 328 324 323 325 324 321 317 314 319 323 316 310 312 314 313 321
305 305 305 306 306 306 306 306 306 306 306 306 306 306 305 305 306 306 307 308 308 309 310 311 312 313 313 312 311 312 312 312 312 312 312 314 314 315 317 318 319 320 319 319 319 317 315 316 317 318 320 322 324 325 327 327 327 328 328 328 327 324 322 320 316 317 319 322 324 324 323 324 324 324 325 324 324 322 319 319 321 317 313 314 314 315 324
305 305 305 305 305 305 305 305 306 306 306 305 305 306 305 305 306 306 307 308 308 309 310 310 310 311 310 310 309 309 310 310 311 312 312 314 314 314 316 316 317 319 319 319 321 319 316 315 317 319 319 320 320 322 324 327 327 327 334 338 328 323 325 322 315 314 315 315 317 319 320 321 323 325 325 325 324 322 319 313 311 315 319 318 315 316 329
305 305 305 305 305 305 305 305 306 306 306 305 305 305 305 305 306 307 306 307 308 309 309 309 310 310 310 311 311 310 311 312 312 313 314 314 314 314 316 317 317 318 318 318 320 322 322 319 317 317 318 318 319 321 322 323 324 333 350 349 331 327 330 325 319 317 317 318 322 329 329 321 318 322 324 325 327 323 321 314 309 314 318 318 323 326 327
305 305 305 305 305 305 305 305 306 306 306 305 305 305 305 306 306 306 307 308 308 308 309 309 310 311 311 311 312 311 311 312 312 313 314 314 314 313 314 316 316 315 316 317 319 321 321 321 321 322 321 321 322 321 321 322 324 338 353 349 338 332 326 325 326 323 324 330 332 332 332 323 318 321 322 324 328 325 320 314 314 319 314 311 328 337 327
305 305 305 305 305 305 305 305 305 306 306 305 305 304 305 306 306 305 306 307 308 308 308 309 309 309 310 310 310 310 311 311 312 313 313 313 313 313 314 314 314 313 313 315 318 319 319 319 319 320 319 318 320 321 322 323 325 332 338 339 343 337 326 326 327 323 325 330 330 329 331 327 325 324 323 324 326 323 320 317 322 327 317 312 326 336 332
305 305 305 305 305 305 305 304 304 305 305 305 305 304 304 305 305 305 306 307 307 307 308 308 308 308 309 310 309 310 310 311 311 311 311 312 312 312 314 313 312 312 312 313 315 316 318 318 316 316 317 317 318 321 322 323 323 325 328 334 340 334 329 333 328 322 324 326 327 329 327 325 325 325 325 326 326 325 323 323 325 328 325 324 330 337 341
305 306 305 305 306 305 305 304 304 305 305 305 304 304 304 305 305 306 307 306 306 307 307 308 308 308 309 310 309 309 310 310 310 311 310 310 311 311 312 312 312 312 312 312 313 314 314 314 313 313 315 316 319 320 321 322 322 321 323 331 334 329 331 339 329 321 322 324 326 327 325 324 322 323 328 327 325 325 323 324 326 324 325 330 331 333 340
305 305 305 305 306 305 305 305 304 304 305 305 304 304 305 305 305 306 306 306 307 307 307 307 307 308 308 309 309 309 309 309 309 310 310 309 311 311 312 312 312 312 312 311 311 311 311 311 311 312 314 315 317 318 319 320 321 322 323 326 331 330 332 336 329 320 320 325 326 325 325 325 319 318 325 326 323 323 322 324 326 324 324 328 326 324 333
305 305 305 305 305 305 304 305 304 304 305 305 304 304 305 305 305 305 306 306 307 306 307 306 307 308 308 309 309 308 309 308 308 310 311 309 310 311 311 312 312 313 313 312 311 310 310 310 310 311 314 315 316 317 319 320 321 324 324 324 329 332 331 331 328 321 319 324 325 324 322 318 315 318 325 327 328 328 327 326 329 327 324 324 324 330 343
306 305 305 305 305 305 304 304 304 304 305 305 304 304 305 305 305 305 305 306 307 306 306 307 307 307 307 308 309 308 307 308 309 311 311 310 309 310 310 311 312 313 313 311 310 309 310 310 311 313 315 315 317 318 319 321 322 324 325 326 329 332 334 334 330 322 319 323 325 326 322 316 317 325 329 330 330 331 329 329 330 330 329 327 331 341 350
306 306 305 305 305 305 305 305 304 304 305 304 304 304 305 305 305 305 305 306 306 305 306 307 306 307 307 307 307 307 307 308 308 310 310 309 309 310 310 310 311 313 313 311 310 310 312 313 313 315 317 318 319 321 321 322 323 323 325 326 327 331 334 334 330 322 320 324 325 322 320 322 328 333 334 331 332 331 330 331 332 331 331 334 339 344 350
306 306 305 306 305 305 305 304 304 304 304 304 304 304 304 304 305 305 306 306 306 305 305 306 306 306 307 307 307 307 308 308 308 309 309 309 310 310 310 310 311 312 311 310 312 313 314 316 316 316 319 320 321 322 321 321 321 322 325 326 327 332 332 329 328 324 320 321 322 321 324 331 336 338 335 333 337 336 330 329 335 338 338 344 350 351 353
306 306 306 306 306 305 304 304 304 304 305 305 305 304 304 305 304 305 305 306 306 306 305 306 307 306 307 307 307 308 307 307 309 309 310 310 311 311 310 310 311 311 310 316 322 319 315 316 318 318 320 322 323 323 321 322 322 322 325 326 327 332 334 328 323 322 321 318 317 321 324 327 332 335 334 337 341 344 340 334 338 348 350 352 358 356 353
306 306 306 306 305 305 305 305 305 305 305 305 305 305 304 305 304 304 305 306 306 306 306 306 307 307 307 307 307 307 308 308 309 309 309 310 310 311 310 310 312 311 311 320 327 324 318 317 318 319 323 326 327 328 326 325 326 323 324 329 328 330 337 335 324 321 323 319 317 321 319 319 330 336 335 339 339 343 353 349 345 355 358 354 357 358 358
306 305 305 305 305 305 305 305 305 305 305 305 305 305 305 305 304 304 304 305 305 306 306 306 306 306 307 306 306 307 308 309 310 309 309 309 309 310 310 311 313 312 311 320 326 324 320 319 319 320 324 326 327 329 329 328 329 327 324 327 328 328 338 342 330 325 324 318 317 319 316 320 338 344 339 340 338 341 349 342 340 358 364 352 353 358 359
305 305 305 305 305 305 305 305 305 306 305 305 305 305 305 305 304 304 304 305 305 305 305 305 305 306 306 306 307 308 308 309 310 310 309 309 309 310 310 310 313 313 312 318 324 323 319 319 321 322 323 322 324 328 330 329 329 332 331 331 330 330 338 340 330 326 328 324 320 319 319 330 346 343 338 341 341 343 341 329 336 361 364 352 353 357 357
305 305 305 305 305 304 304 304 305 305 305 305 305 305 305 305 305 304 304 305 305 305 305 305 306 306 307 307 307 308 307 308 310 311 310 309 310 311 311 310 312 313 313 316 319 319 317 318 321 323 323 321 321 326 329 331 333 334 333 334 335 333 333 333 327 325 327 327 324 321 324 340 352 344 340 341 340 340 335 333 350 366 357 352 355 354 354
305 305 305 305 305 305 305 305 305 305 305 305 305 305 305 305 305 305 305 305 306 305 305 305 306 306 306 307 306 307 307 308 310 311 310 311 312 311 310 311 313 314 315 315 315 316 319 320 321 322 324 323 323 326 330 332 333 332 331 334 338 339 338 335 329 326 326 327 331 331 333 343 349 344 340 338 337 338 339 347 359 358 350 352 355 352 356
305 305 305 305 305 305 305 305 305 305 305 305 305 305 305 305 305 305 305 305 306 305 304 305 305 306 306 306 306 307 307 308 310 311 310 311 312 309 310 314 315 314 314 316 316 317 320 321 320 322 326 326 326 328 331 331 331 331 332 336 338 340 343 340 332 328 326 324 328 335 339 341 337 339 347 348 346 350 356 356 352 347 348 353 354 355 359
305 305 305 305 305 305 305 305 305 305 305 305 305 305 305 305 305 305 305 305 305 305 305 305 306 306 306 307 307 307 307 307 308 309 310 311 310 310 311 314 315 314 315 316 317 318 319 321 321 322 326 328 329 331 332 332 332 331 333 337 338 339 344 344 338 336 335 330 328 334 344 347 340 345 356 356 353 356 358 351 346 348 350 352 355 357 357
305 305 305 305 305 305 305 305 305 305 305 305 305 305 305 305 305 305 304 305 305 305 305 305 306 306 306 307 307 307 307 307 307 307 308 308 309 310 310 310 313 316 317 316 316 317 317 319 322 323 325 328 330 330 330 332 333 332 332 337 339 339 339 340 340 340 340 341 339 340 347 350 345 346 350 347 344 346 348 346 350 352 351 352 353 352 352
305 305 305 305 305 305 305 305 305 305 305 305 305 305 305 305 305 305 305 305 306 306 306 306 306 306 307 307 307 308 307 307 307 307 307 307 308 309 309 308 311 316 318 318 318 317 316 317 320 323 324 326 328 329 329 332 334 335 334 336 338 337 335 338 342 342 341 345 346 342 344 345 341 342 342 339 340 343 346 348 350 348 346 346 346 346 348
305 305 305 305 305 305 305 305 305 305 305 305 305 305 305 305 305 305 305 306 306 306 306 306 306 307 307 307 307 308 308 308 308 307 307 308 308 308 309 309 310 314 317 319 319 319 318 318 320 322 324 325 327 328 329 331 332 333 335 336 336 336 336 338 341 342 342 347 350 346 343 343 341 340 340 340 340 340 341 343 343 342 341 340 340 342 343
305 305 305 305 305 305 305 305 305 305 305 304 304 305 305 305 305 305 305 306 307 306 306 306 306 306 307 307 307 308 308 308 308 308 308 308 308 308 309 310 311 314 317 318 319 320 319 318 319 322 323 324 326 328 329 330 330 331 333 334 336 337 337 338 340 342 343 346 347 344 341 340 338 338 338 338 339 337 336 337 337 336 336 335 335 337 337
305 305 305 305 305 305 305 305 305 304 304 304 304 305 305 305 306 305 305 306 306 306 306 306 306 306 307 307 307 308 308 307 307 308 308 308 308 308 309 309 309 312 314 315 318 322 321 318 318 320 321 323 326 327 328 329 329 331 332 332 334 336 337 338 340 341 343 345 344 342 342 340 338 338 337 334 334 334 333 333 333 332 332 332 331 331 330
304 304 304 304 304 305 305 304 304 304 304 304 304 305 305 305 306 306 306 306 306 306 307 307 306 306 307 307 307 307 308 308 308 308 308 308 308 309 309 309 309 311 312 311 314 318 319 318 318 319 320 323 325 327 328 329 329 331 332 332 334 336 337 339 340 342 344 346 343 342 343 342 339 339 338 335 332 331 331 331 330 330 330 330 330 329 328
304 304 304 304 304 304 304 304 304 304 304 304 304 305 305 306 306 306 307 306 306 306 307 306 306 306 307 307 308 308 308 308 308 308 308 308 309 309 309 309 310 310 311 311 313 315 316 317 318 319 321 322 323 326 328 329 329 331 333 334 336 338 337 337 339 341 344 343 341 342 343 341 338 335 335 335 332 330 330 329 328 327 328 328 328 328 328
304 304 304 304 304 304 304 304 304 304 303 303 304 305 306 307 307 307 307 307 306 306 306 306 306 306 307 308 308 308 308 309 309 309 308 308 308 309 309 309 310 310 310 311 313 315 316 317 317 319 321 321 322 325 327 329 331 333 333 334 335 335 335 335 336 338 340 339 339 340 340 338 335 333 331 332 332 330 328 328 328 327 326 327 327 327 327
304 304 304 304 304 304 304 304 304 304 303 304 305 305 307 308 307 306 306 307 306 306 306 306 307 307 307 307 308 309 310 310 310 310 309 308 308 309 309 309 311 312 311 312 312 314 316 318 318 318 318 319 321 325 327 328 330 331 331 332 333 333 334 334 333 335 338 337 337 337 336 335 333 330 328 330 330 330 330 330 329 329 327 327 327 327 326
305 305 305 305 304 305 305 304 304 304 304 304 306 306 307 309 308 306 306 306 306 306 306 307 307 307 307 308 310 311 311 311 311 311 310 309 308 308 308 310 311 311 312 316 317 315 316 318 317 317 319 320 322 325 327 327 328 329 330 331 331 332 332 333 334 336 337 335 334 334 334 332 330 328 327 328 328 328 330 331 332 331 330 328 326 326 325
305 305 305 305 305 305 305 304 304 304 305 305 305 306 306 306 306 306 306 305 305 305 307 308 308 308 308 309 310 311 312 312 311 310 311 310 309 308 308 310 311 310 313 320 321 319 317 316 316 318 322 322 322 325 327 328 327 328 329 330 330 331 330 331 333 335 334 333 334 334 333 330 328 327 327 326 325 326 328 329 329 330 330 328 327 326 326
305 305 305 305 304 304 305 305 305 305 305 305 304 304 304 304 305 305 305 305 305 306 307 309 309 309 309 310 311 311 311 313 313 312 311 310 309 308 308 309 310 310 313 318 320 320 318 317 317 321 323 323 323 325 328 328 328 328 328 329 329 328 327 328 330 331 331 331 332 333 333 332 330 328 326 324 324 325 325 325 326 327 328 329 329 329 329
305 304 304 305 305 305 305 306 306 306 306 306 306 307 307 307 307 306 305 305 306 307 308 308 309 309 310 312 313 313 312 314 315 314 313 313 311 309 310 310 311 313 315 316 316 318 318 318 319 323 325 325 325 326 328 328 327 327 328 328 327 326 325 326 328 329 329 329 328 329 331 332 331 330 328 326 325 326 324 323 324 325 327 328 328 327 328
305 305 305 305 306 306 307 307 307 307 308 308 308 308 309 308 308 307 306 306 307 309 309 309 309 310 311 313 314 314 313 314 316 316 315 316 314 311 311 313 315 318 319 318 316 318 320 320 322 325 327 327 326 327 329 328 326 326 327 327 326 326 326 326 327 328 329 328 328 328 329 330 330 329 328 327 327 327 326 325 324 325 326 327 326 325 326
307 306 306 307 307 308 309 309 309 309 309 310 309 309 309 308 307 307 306 306 308 309 309 310 310 311 312 313 314 314 313 315 317 317 317 318 318 315 315 320 322 322 320 317 317 320 323 323 324 326 327 326 326 328 329 328 326 325 326 326 326 326 326 326 328 329 329 328 328 328 328 329 328 328 327 327 327 326 325 326 326 326 327 328 327 327 328
309 308 308 309 310 311 312 312 311 310 310 310 310 309 309 308 308 308 308 308 309 309 309 310 310 310 311 313 314 313 314 317 319 318 318 320 320 318 318 322 324 321 319 319 321 323 325 325 325 326 326 325 326 327 327 326 325 326 326 326 326 326 327 327 328 328 328 328 329 328 328 328 327 326 326 326 327 326 326 326 326 326 326 327 327 328 329
310 310 311 311 312 312 312 312 311 311 311 310 309 309 310 310 310 311 311 311 311 310 309 310 311 311 312 314 314 314 316 318 318 318 319 320 320 319 319 321 322 321 322 323 324 324 324 324 325 325 325 325 325 325 325 325 325 325 325 326 326 326 327 328 327 327 327 328 328 328 328 328 327 326 325 325 326 326 327 327 326 325 325 326 327 328 328
311 312 313 313 312 312 312 312 312 312 312 311 310 311 312 312 312 313 313 312 312 312 312 312 313 314 314 314 314 315 316 316 317 319 319 319 319 319 320 322 323 323 323 324 324 324 324 324 323 323 324 325 325 324 325 326 325 325 325 325 325 325 326 326 327 328 327 326 326 326 326 325 325 326 326 326 326 326 326 326 326 325 325 326 326 327 327
311 312 312 312 311 311 311 311 311 312 313 313 312 312 313 313 313 314 315 314 313 313 314 315 315 315 314 315 316 317 317 317 319 320 320 319 320 321 321 322 324 324 323 323 325 326 325 323 324 324 325 325 326 325 325 325 325 326 326 326 325 325 324 324 326 328 326 324 324 324 324 323 324 324 325 325 325 325 325 325 326 326 326 327 328 328 328
310 310 310 310 310 310 310 311 312 313 314 314 314 313 313 314 314 314 315 315 315 315 316 317 317 317 316 316 317 318 318 318 320 321 320 321 322 323 323 324 325 324 322 322 326 328 326 322 323 325 325 325 325 324 324 325 325 326 327 326 327 327 325 324 325 326 324 324 325 325 324 323 324 325 324 325 326 326 326 325 326 326 326 327 327 327 327
308 308 308 309 309 309 310 312 314 314 314 315 314 313 313 315 316 315 314 314 316 318 318 319 320 320 319 318 318 320 320 320 320 321 321 322 322 323 324 325 326 324 323 323 327 329 326 322 322 325 325 325 325 324 324 325 326 325 325 326 327 327 325 324 324 324 324 325 327 327 326 325 325 326 326 325 326 327 327 326 326 326 326 326 326 326 327
310 310 310 311 311 311 312 312 312 313 313 313 313 314 315 316 317 317 316 315 316 318 319 319 321 322 320 318 319 321 321 320 321 322 323 322 322 323 324 324 323 323 324 326 327 327 324 323 324 326 326 326 326 326 326 326 326 325 326 327 328 326 324 325 325 324 324 325 326 326 326 325 325 325 325 324 325 326 326 326 327 326 326 326 326 326 327
312 311 310 310 310 311 312 312 310 311 313 314 314 316 318 317 317 318 318 317 317 319 320 320 321 322 321 319 320 321 321 321 322 323 324 324 324 324 324 324 324 324 325 326 326 326 325 325 326 326 326 326 326 326 326 327 328 328 328 328 327 324 322 323 324 324 324 325 325 324 325 325 324 324 324 324 325 325 326 327 327 327 327 327 327 327 327
313 312 310 310 311 312 313 313 311 311 313 314 314 315 317 317 317 318 318 316 316 318 320 322 322 322 322 321 322 322 323 323 324 324 324 325 326 326 325 324 324 326 327 326 325 326 326 326 325 325 325 326 325 326 327 329 329 329 329 327 324 322 322 323 323 323 324 324 324 324 324 324 324 324 324 324 324 325 326 326 326 327 327 327 327 327 327
315 313 310 311 312 312 314 315 314 314 315 316 315 314 315 315 316 317 317 316 317 317 318 320 321 322 322 322 323 324 325 325 325 324 325 325 325 324 323 323 324 326 327 326 325 325 325 324 324 324 325 324 324 325 327 327 327 328 328 326 323 322 322 323 323 324 324 324 324 324 324 324 325 324 324 325 324 325 325 325 325 326 326 326 327 327 327
316 313 311 312 313 313 315 318 319 319 319 319 317 316 316 316 317 317 317 317 318 319 319 319 321 321 321 322 324 324 325 325 325 325 325 325 323 322 323 324 324 325 326 325 325 325 324 323 323 324 325 325 325 326 326 326 326 327 328 325 323 322 322 321 322 323 323 324 324 325 325 324 324 324 324 324 323 323 323 324 324 324 325 325 325 325 325
317 314 314 315 315 315 317 319 320 321 322 320 318 318 319 320 320 319 318 318 320 320 320 320 322 323 323 323 323 323 322 323 324 324 324 324 323 323 323 324 324 324 324 325 325 325 324 323 323 323 323 324 325 326 326 326 325 325 325 324 322 323 323 322 322 323 323 323 324 325 325 323 322 321 322 322 322 321 321 321 321 322 323 323 323 322 323
316 314 315 317 317 316 318 321 322 324 325 323 321 321 321 321 319 318 318 319 320 321 320 321 323 324 324 323 322 322 322 323 323 322 322 323 323 323 323 324 324 324 324 325 325 324 323 322 321 322 322 323 324 324 324 325 324 324 323 323 322 322 323 323 323 323 322 322 323 324 324 323 322 321 321 321 322 321 321 320 320 320 320 321 322 321 320
313 313 314 317 318 318 318 320 321 322 323 323 321 321 321 321 320 320 320 321 322 323 323 323 323 323 322 321 320 320 321 322 322 322 322 323 323 322 323 324 324 324 324 324 324 323 322 321 321 321 322 322 323 323 323 323 323 323 323 324 324 323 322 321 321 322 322 321 321 322 322 322 321 321 322 321 320 319 318 319 320 320 319 319 320 320 320
312 313 314 316 318 317 316 316 318 320 322 323 323 322 322 322 322 322 324 325 325 325 326 324 322 320 321 321 322 322 322 323 322 322 322 323 322 322 323 324 324 323 323 322 321 321 321 321 322 323 323 323 323 323 323 323 323 324 325 325 325 324 322 321 321 321 321 320 321 321 321 321 320 320 320 320 319 320 320 320 319 318 318 318 319 320 320
312 314 315 316 316 316 316 316 316 318 321 323 323 323 324 324 323 323 325 326 326 324 322 321 321 321 322 323 323 323 322 322 322 322 322 322 322 322 322 323 323 322 322 321 321 321 322 322 323 323 324 324 324 323 323 323 324 325 326 325 324 322 321 321 321 321 320 320 320 321 321 320 320 319 319 319 321 323 324 322 320 318 318 318 318 318 318
Wind_Speed
26 26 25 25 25 25 24 24 23 23 23 20 18 15 9 6 8 19 34 38 25 10 5 6 6 7 10 13 15 14 13 12 12 13 14 13 11 10 11 13 13 12 11 13 14 12 10 13 13 11 9 10 11 13 15 16 19 15 9 11 14 9 5 5 6 6 8 10 8 15 21 17 12 11 11 10 8 8 7 5 4 4 5 5 5 5 5
26 25 25 25 24 24 24 23 21 20 19 19 17 10 5 6 9 16 28 30 16 6 5 6 6 8 11 14 15 14 13 13 14 15 14 12 11 11 12 13 12 12 13 14 15 13 10 11 13 13 10 8 9 13 18 16 14 13 9 7 10 9 7 6 5 5 6 8 7 8 16 15 9 8 11 12 13 11 9 7 4 4 6 8 6 5 5
26 25 25 25 24 24 24 23 20 18 17 17 14 7 4 7 6 7 16 21 11 6 6 7 7 10 12 15 16 15 13 13 14 14 14 12 11 9 10 14 15 13 12 13 15 15 13 11 12 11 10 10 12 11 15 17 13 11 13 12 10 9 8 8 7 8 8 9 7 4 8 10 8 9 12 14 16 15 10 6 6 6 7 8 7 5 6
26 26 25 25 24 23 23 22 21 18 16 14 13 8 5 5 5 5 8 10 7 5 7 7 7 8 9 10 12 14 12 10 11 13 12 11 11 10 9 12 12 11 13 14 13 12 13 14 13 12 11 9 9 16 17 13 12 15 17 15 10 7 8 11 13 11 8 8 7 4 5 7 10 13 15 14 15 15 11 6 7 6 4 5 6 6 6
26 26 26 25 24 23 22 21 20 17 15 14 11 8 5 3 4 6 6 5 6 7 7 7 6 8 9 6 8 14 14 11 12 12 10 10 12 11 8 9 12 13 15 13 11 13 17 15 13 11 11 13 14 21 23 16 17 23 19 15 9 5 7 13 18 16 12 9 8 9 9 9 12 16 17 16 15 14 11 9 9 6 4 7 8 5 4
27 27 27 25 24 23 21 21 20 18 15 14 9 4 4 4 4 6 7 6 7 8 10 11 12 13 12 8 9 15 14 12 11 10 9 10 10 8 7 7 12 15 15 11 10 15 14 11 14 14 14 17 17 18 18 14 17 22 16 14 8 3 5 11 16 17 17 14 12 12 12 11 11 15 18 17 17 17 15 13 10 8 6 9 9 6 6
27 27 27 26 24 23 22 21 19 18 17 14 8 4 4 5 5 6 6 6 7 10 13 16 16 15 13 8 8 13 14 13 11 8 9 11 8 7 9 10 13 14 13 10 8 11 11 10 13 15 15 16 13 12 16 14 15 19 13 9 6 4 3 6 10 13 17 18 17 17 15 14 12 13 17 19 18 19 18 14 11 9 9 9 9 9 10
27 26 26 25 23 22 22 21 18 17 17 14 8 6 6 5 4 4 4 5 8 10 11 12 12 11 11 8 7 9 12 14 13 10 10 11 9 6 8 12 13 12 11 11 9 9 12 13 14 15 16 15 10 7 8 10 14 18 16 9 3 6 5 5 6 7 10 17 19 19 19 16 14 12 12 16 18 18 18 16 13 10 9 8 9 10 9
27 26 25 24 23 22 21 21 18 15 14 11 6 6 9 10 6 3 3 6 7 7 7 8 9 9 8 7 7 10 11 13 15 13 13 13 11 8 8 11 11 10 9 11 12 13 15 15 16 17 15 12 11 9 8 11 15 15 14 12 4 5 5 4 4 2 3 7 13 20 20 17 17 18 14 13 14 13 13 15 14 12 10 9 8 8 7
27 26 25 24 22 21 20 19 17 15 13 11 5 5 10 11 4 0 1 5 6 6 7 7 7 7 7 6 8 11 11 13 13 11 10 12 12 10 10 8 6 7 9 11 12 15 17 17 17 16 16 16 15 15 17 17 15 12 12 12 9 5 4 5 4 1 2 5 8 15 18 15 15 16 13 10 8 6 6 9 14 15 14 9 7 7 6
25 25 25 24 22 20 20 19 17 15 14 13 9 8 11 9 3 0 2 5 6 6 7 7 6 7 9 10 11 11 13 14 11 5 7 11 12 11 12 9 4 4 7 9 11 14 16 18 17 15 16 19 18 18 21 21 18 15 11 10 11 8 3 6 4 3 3 6 8 7 9 11 10 9 9 11 12 8 7 6 7 9 9 8 7 7 6
24 23 23 23 21 20 19 19 18 16 15 15 13 14 15 11 5 2 2 4 6 6 6 8 9 10 12 14 14 12 13 14 12 9 10 14 13 11 10 10 7 5 6 9 10 12 14 16 16 14 15 17 17 19 22 22 20 16 12 10 13 10 3 5 4 3 3 4 4 5 6 7 3 4 9 10 11 11 11 11 9 7 7 4 3 4 4
22 22 22 21 21 20 20 20 19 16 15 14 13 16 17 12 6 2 2 5 6 6 7 9 12 14 15 15 14 13 12 12 13 13 12 14 15 12 8 8 10 9 9 8 4 9 11 12 12 12 13 13 14 16 19 21 21 18 14 12 10 8 4 3 4 4 2 2 4 5 5 4 5 1 2 1 3 6 8 8 9 7 3 3 4 3 2
20 20 20 20 20 20 20 19 17 15 14 12 13 16 16 13 8 3 2 4 6 7 8 9 11 13 14 14 13 11 11 11 11 11 11 11 14 13 9 8 11 11 7 3 3 5 6 7 7 6 8 9 9 10 13 15 17 17 17 13 7 5 3 1 3 4 4 4 4 5 5 5 5 3 1 2 2 2 4 3 3 7 7 7 6 6 6
19 19 19 19 19 19 18 16 15 13 12 11 12 14 15 14 12 7 2 2 6 8 6 6 9 11 11 12 13 11 9 8 7 8 10 9 9 11 12 9 10 12 6 3 4 1 2 3 4 4 4 5 5 6 8 10 10 13 14 9 6 4 2 2 4 5 5 5 3 4 7 6 5 3 1 2 6 8 7 6 4 5 6 5 7 8 8
19 19 18 18 18 17 16 14 13 12 11 11 12 14 15 15 14 11 5 2 4 5 4 5 10 12 9 10 13 11 7 5 6 6 7 8 9 11 13 11 10 11 6 2 3 0 1 2 3 2 3 4 5 7 7 8 9 9 8 7 9 8 3 1 4 4 6 6 6 6 7 5 4 4 2 1 4 8 8 5 2 3 5 5 8 8 9
19 19 18 18 16 15 14 13 12 12 11 10 10 13 15 14 12 10 5 2 4 6 7 10 12 11 8 8 9 8 5 4 5 3 2 6 10 11 11 10 10 9 6 1 1 1 1 3 3 2 3 4 6 7 7 7 8 9 10 10 9 6 1 1 2 2 5 4 3 4 4 2 4 5 5 4 3 7 8 3 4 3 4 6 9 9 9
20 19 18 18 16 15 14 13 12 12 11 10 10 13 16 15 12 9 6 3 5 6 7 10 11 8 7 8 8 7 6 5 4 2 3 5 6 7 9 8 7 6 5 2 1 2 1 3 3 3 3 1 3 6 6 6 5 6 9 9 7 4 3 1 2 2 3 4 2 3 3 2 2 2 3 5 5 6 4 5 5 1 5 7 9 9 8
19 19 18 17 16 15 13 12 12 11 9 9 9 12 15 14 12 11 7 3 4 6 7 10 11 10 10 10 9 7 7 8 5 3 5 5 2 6 10 7 4 5 4 2 2 3 3 4 3 3 2 1 1 4 4 5 6 6 7 6 6 7 5 2 3 3 2 4 1 1 3 3 0 2 2 2 4 3 3 4 3 4 7 8 9 9 7
19 18 17 16 15 14 12 11 11 10 9 9 9 12 16 16 12 11 10 5 4 7 10 12 15 15 12 11 10 8 8 7 4 3 5 5 3 6 8 4 3 4 3 1 2 2 3 4 3 3 2 2 1 2 4 6 7 4 5 4 3 4 4 3 4 4 0 2 2 2 1 5 2 3 2 3 1 5 4 3 4 5 7 8 8 9 8
18 17 17 16 15 14 13 12 11 10 10 10 10 13 16 15 12 11 12 9 6 5 7 10 15 16 15 14 14 14 12 10 8 6 5 5 2 2 4 3 2 2 1 2 2 2 2 2 3 2 2 1 2 1 3 5 4 2 3 3 2 3 3 3 4 4 3 1 1 1 3 4 2 3 3 2 2 3 3 5 6 6 6 7 8 8 8
18 18 17 17 16 15 14 13 12 12 12 11 11 12 14 14 12 11 9 9 9 9 11 16 21 23 25 25 24 24 22 20 19 14 8 5 3 3 5 7 4 2 1 1 1 2 2 2 2 2 1 1 1 1 1 3 3 3 4 2 1 2 3 1 3 2 1 2 4 10 12 4 5 6 5 6 6 6 7 8 8 7 7 7 7 8 9
19 18 18 17 16 16 15 14 13 13 12 12 11 12 14 15 15 14 10 8 10 12 16 20 20 20 21 24 25 27 27 26 25 22 15 8 5 5 6 7 3 2 2 1 1 1 3 3 3 2 1 1 0 1 1 2 2 3 4 0 2 3 4 0 3 2 4 3 4 11 15 5 8 8 6 8 9 8 9 10 10 9 9 9 8 8 10
19 19 19 18 17 17 15 14 14 13 12 12 12 13 15 17 16 15 12 8 5 6 10 11 10 9 12 17 19 21 21 21 22 22 20 14 8 5 5 5 2 1 2 4 4 2 2 3 3 2 1 1 0 1 1 1 1 2 3 1 2 5 7 4 3 4 5 4 5 10 14 9 10 10 10 12 13 12 12 11 10 11 11 11 11 10 11
19 19 19 19 18 17 16 15 15 14 14 13 13 13 15 16 14 11 9 6 3 4 6 7 8 12 16 19 18 16 16 18 19 19 21 20 15 10 8 6 5 3 4 4 4 2 1 2 2 2 2 1 1 0 0 1 1 2 3 2 2 5 8 6 4 3 1 2 7 12 11 9 13 11 10 11 12 14 15 12 11 13 13 13 12 11 11
19 19 18 18 18 17 17 16 16 15 15 15 14 15 16 17 15 12 10 6 4 4 5 6 9 13 15 15 17 18 17 19 20 19 20 21 21 18 14 10 7 5 3 3 3 2 1 1 2 3 2 1 1 1 0 2 3 2 2 2 1 3 5 4 4 4 3 4 8 12 9 8 14 12 10 10 10 13 15 13 13 15 14 14 13 12 12
20 19 19 18 18 18 17 17 16 16 16 16 16 16 17 18 18 16 13 8 3 2 5 5 6 11 15 18 24 25 20 18 20 19 19 21 22 20 15 9 7 5 2 1 1 1 1 2 3 3 2 1 1 1 1 3 3 3 3 2 1 0 2 2 2 4 4 3 6 8 6 5 7 9 9 9 9 13 14 13 13 14 12 11 12 12 12
20 20 20 19 18 18 17 16 16 16 16 17 18 18 20 21 20 18 17 13 7 4 5 6 7 11 15 17 21 21 16 15 18 19 21 22 22 21 15 9 6 4 3 2 1 1 3 3 2 2 2 1 2 2 2 2 2 3 3 1 2 1 1 0 2 5 3 3 3 5 4 3 5 8 9 8 8 12 14 13 13 12 10 10 11 11 11
21 20 20 20 19 18 17 16 16 16 16 18 19 18 18 17 14 12 12 13 11 5 4 7 7 8 10 13 17 19 17 17 17 17 17 17 16 15 11 7 6 5 4 3 3 3 3 2 2 2 2 2 1 2 1 1 2 2 2 2 1 2 2 3 3 7 5 4 4 3 1 3 6 8 9 9 9 10 13 12 11 11 10 10 10 10 10
22 21 21 20 20 19 17 17 16 15 15 16 15 12 9 6 4 2 1 4 6 5 3 5 6 5 8 12 14 14 15 15 14 12 12 11 10 10 9 7 6 5 3 3 3 3 2 2 3 3 3 3 1 2 1 1 2 1 2 4 4 4 3 3 3 5 5 5 4 2 3 4 4 6 8 10 10 10 10 10 9 10 10 9 9 9 8
24 23 22 22 21 19 18 18 17 15 14 12 8 4 2 1 1 2 2 3 7 6 3 4 6 5 6 8 6 6 10 14 12 8 8 9 9 8 8 6 4 4 4 2 2 2 2 2 3 3 1 2 1 2 1 2 2 2 3 5 4 4 4 2 2 4 4 3 6 6 5 4 3 4 7 9 10 9 9 9 9 9 10 10 9 8 8
26 25 24 22 21 20 19 18 17 14 12 11 9 9 10 12 13 12 14 17 16 9 3 4 5 4 3 4 5 7 11 12 10 5 5 8 7 5 5 4 3 4 4 2 1 1 2 4 6 3 1 2 2 2 2 2 2 3 5 5 3 2 3 3 2 3 4 1 5 7 6 5 5 6 7 7 7 8 9 9 9 8 8 8 8 8 9
27 27 25 23 21 19 19 18 17 16 14 14 16 19 20 19 18 17 16 16 12 6 3 3 4 4 3 4 7 10 10 7 4 2 3 5 4 3 4 4 3 4 4 4 2 1 2 4 4 1 1 2 2 1 2 2 2 4 6 4 3 3 5 5 4 5 5 5 4 6 6 5 6 7 8 7 7 8 8 8 8 8 8 9 9 9 8
29 27 24 20 17 17 18 19 18 15 12 11 13 15 15 13 11 9 6 6 6 5 3 2 3 4 4 3 4 7 8 4 2 3 2 3 1 1 3 3 2 3 2 2 2 3 3 2 1 0 1 2 2 2 3 1 1 4 5 3 3 3 4 5 6 6 5 5 5 6 6 6 6 5 6 8 9 9 9 9 9 9 9 9 9 8 7
28 23 18 16 16 18 18 16 12 9 9 9 11 12 11 10 10 9 8 8 4 2 2 2 2 4 5 3 2 5 6 4 2 2 1 3 4 2 1 1 1 2 1 1 1 2 1 0 0 1 1 2 2 2 1 2 3 3 3 3 3 2 2 4 5 5 4 4 6 7 8 8 8 7 6 7 8 9 9 9 9 9 9 8 7 6 6
21 18 15 16 16 15 13 8 6 7 6 7 9 10 10 9 9 9 11 11 8 4 3 2 3 4 4 3 2 4 5 3 2 1 0 2 3 3 1 1 1 0 0 1 2 1 0 1 0 1 2 1 1 0 2 3 2 2 4 5 4 3 3 4 4 5 6 7 7 8 8 8 8 7 7 7 7 7 8 9 8 8 8 7 6 5 5
17 18 18 17 13 8 5 4 6 8 8 9 10 11 11 8 6 7 8 9 9 7 3 3 4 4 3 2 2 3 3 2 1 1 0 0 1 2 1 0 0 1 1 1 1 1 1 1 0 1 1 1 1 3 4 2 1 2 4 5 5 4 3 3 3 4 5 7 7 6 6 7 7 6 7 7 7 7 7 7 7 7 7 7 5 3 3
18 19 15 10 5 2 2 2 4 6 9 10 10 7 4 2 2 3 3 3 5 5 3 3 5 4 2 3 3 2 2 2 1 0 0 0 1 1 1 1 2 2 1 1 0 0 0 1 1 1 1 1 2 3 4 3 2 2 3 4 5 4 3 3 3 3 4 5 5 4 6 7 7 7 7 7 7 6 6 6 6 6 6 6 4 3 3
16 13 8 4 2 3 6 8 9 11 11 7 4 3 1 1 1 2 2 2 2 2 3 3 4 3 3 5 5 3 2 2 2 1 0 0 0 1 1 0 1 1 1 1 1 1 1 1 1 2 2 1 1 3 5 5 3 3 4 4 4 4 3 4 4 2 2 4 4 4 6 7 6 6 6 5 5 6 6 6 6 6 6 6 5 5 4
14 9 6 3 3 9 15 16 15 13 8 3 3 1 1 1 1 1 1 1 2 2 2 2 2 2 4 6 5 3 3 3 1 1 1 1 1 1 1 1 0 1 1 1 1 1 1 1 1 1 2 1 2 4 5 5 4 3 3 3 2 4 6 5 3 1 2 5 6 5 6 7 6 5 5 5 5 5 5 6 6 6 6 6 6 5 5
11 7 6 8 12 19 24 21 14 8 4 2 2 1 1 2 1 0 1 2 2 1 1 2 2 2 4 5 4 3 1 1 1 1 1 1 1 1 1 1 0 0 0 0 0 1 1 1 1 1 2 3 2 2 3 3 4 5 5 5 3 3 6 6 4 2 4 6 6 6 8 8 7 5 5 6 5 5 5 7 7 6 6 6 6 7 9
10 11 12 16 19 21 18 12 6 3 2 1 1 2 1 1 0 0 0 2 1 1 1 2 3 3 2 2 3 2 1 1 1 1 1 0 1 1 1 1 0 1 1 0 0 1 1 2 2 2 3 3 1 1 3 4 5 7 8 9 6 3 6 6 6 7 7 6 5 5 5 5 5 5 6 7 7 6 7 7 7 6 6 8 9 10 12
11 12 12 10 10 8 5 2 2 2 1 1 1 2 2 2 1 1 2 1 1 1 1 2 2 2 2 1 1 1 1 1 1 1 1 1 1 1 0 0 1 1 1 0 1 2 2 2 3 4 3 3 3 4 5 5 5 5 5 6 4 3 6 7 7 8 7 6 6 6 6 5 6 8 10 10 8 8 8 9 9 9 10 11 11 11 12
10 7 4 2 2 2 2 2 2 2 2 2 3 3 4 4 3 3 3 3 2 1 1 1 1 3 2 1 1 0 1 1 1 1 1 1 1 1 0 1 1 1 0 1 2 2 3 3 4 4 3 4 5 6 6 5 5 5 4 4 3 6 7 7 7 8 7 6 6 8 9 8 9 11 13 13 12 10 8 9 11 12 12 11 11 11 11
6 2 1 2 2 1 1 2 1 2 2 3 3 3 5 6 6 5 5 5 5 5 3 0 1 3 3 1 1 1 0 1 0 0 0 0 0 1 1 1 0 1 1 2 2 2 3 4 4 4 4 5 6 6 5 4 4 4 3 2 5 9 9 8 8 8 7 7 8 9 9 8 8 9 11 13 14 12 9 9 10 11 11 9 9 10 10
3 0 1 3 3 2 2 2 2 2 1 2 3 3 4 6 7 7 6 5 5 6 6 4 3 4 4 2 1 0 0 1 1 1 0 1 1 2 1 1 1 1 2 3 3 3 4 4 3 4 5 5 5 5 6 6 6 6 3 3 6 8 9 9 9 9 8 8 8 8 8 7 6 7 8 9 11 11 10 10 11 10 9 8 6 7 8
2 0 2 1 2 2 1 1 2 2 2 3 4 5 5 6 6 6 5 5 5 5 5 4 2 3 4 2 1 1 1 1 0 0 0 1 1 1 1 0 2 3 3 4 4 4 3 3 2 3 4 5 5 7 7 8 8 8 6 5 7 8 8 9 9 8 8 7 7 7 6 6 6 7 7 7 9 10 11 11 10 9 8 7 7 7 9
2 0 1 1 1 1 1 1 2 4 4 4 5 5 5 4 3 4 4 4 4 5 6 4 2 2 3 2 1 2 2 2 1 1 0 1 1 1 1 3 4 3 3 4 5 4 3 3 3 3 4 5 7 8 8 8 10 10 8 6 8 9 9 9 9 8 8 7 6 5 5 6 8 8 8 7 7 9 11 12 12 11 9 9 9 10 11
4 1 1 1 1 1 2 2 2 4 5 4 3 3 4 4 6 7 6 4 5 6 5 3 1 1 2 2 1 2 3 3 2 2 2 2 3 2 2 3 4 3 3 4 4 4 4 5 5 5 6 8 9 10 9 8 9 10 9 8 8 7 7 8 8 8 8 7 6 5 6 7 8 8 8 7 7 8 10 11 11 11 11 10 10 10 11
3 1 0 1 2 2 2 1 1 5 7 7 7 7 5 4 5 5 4 3 4 5 4 2 1 1 2 2 2 3 3 2 2 3 3 4 4 3 3 4 4 3 3 4 4 5 6 6 5 6 8 9 10 10 9 8 8 8 8 8 7 6 7 9 9 8 8 9 8 8 10 10 9 9 8 7 8 10 12 12 10 10 10 9 8 7 8
2 1 1 3 5 5 4 4 6 6 6 6 8 8 6 5 5 4 2 2 3 4 4 3 2 1 2 3 3 2 2 2 2 3 4 4 3 3 4 4 4 3 4 5 5 5 6 6 5 6 7 8 8 7 6 6 6 6 5 7 7 7 8 10 9 8 9 12 12 12 11 12 12 13 14 15 14 12 11 12 14 14 13 13 12 11 11
2 2 3 4 5 5 5 5 6 4 4 5 6 7 6 6 7 6 4 3 3 4 6 5 3 2 3 3 2 1 1 2 4 5 4 3 3 3 4 5 4 4 5 5 4 4 4 5 5 5 5 5 4 4 3 3 5 5 5 6 8 9 8 8 9 9 10 11 13 14 14 15 17 19 19 18 15 9 6 9 14 16 16 18 19 17 17
Wind_Direction
324 323 322 322 322 322 322 323 324 327 330 331 331 328 312 286 287 289 290 297 306 307 279 274 259 246 251 255 258 262 267 269 273 276 273 272 273 271 271 272 273 275 272 276 280 276 278 279 277 283 270 234 212 209 203 193 194 201 210 194 184 189 198 202 229 262 277 271 226 183 180 186 197 199 198 210 221 215 219 228 194 189 211 207 224 245 229
323 322 321 321 320 320 321 321 322 325 328 328 327 322 305 295 291 287 290 290 285 268 268 265 257 263 263 263 267 270 274 273 271 270 268 270 272 266 270 272 266 273 279 273 273 275 274 277 278 282 290 294 275 236 214 209 205 195 197 190 174 185 196 178 191 232 253 271 265 200 185 186 195 199 190 199 215 218 225 236 218 214 223 206 204 236 224
322 322 321 320 320 319 319 318 318 321 325 326 324 312 291 302 287 272 294 297 283 249 254 258 262 270 273 274 273 267 262 260 268 280 284 281 282 283 285 284 277 281 294 292 284 276 265 269 279 283 287 297 303 280 232 220 218 203 198 190 177 185 190 178 189 206 210 226 239 204 185 189 192 193 191 195 207 214 218 227 227 228 233 223 205 220 242
321 321 320 320 319 317 317 316 313 313 320 322 316 303 292 303 293 287 304 306 301 288 282 281 279 283 292 292 285 281 280 281 296 310 308 299 310 324 327 324 320 330 346 336 314 304 301 290 275 273 284 284 300 318 307 279 262 248 221 195 183 187 186 190 197 201 206 219 228 214 189 193 190 189 195 198 204 212 208 205 227 218 205 241 230 199 231
319 319 318 318 317 315 315 314 308 305 310 315 312 298 284 282 283 297 316 320 315 312 312 324 333 321 315 313 304 304 306 309 310 310 304 308 327 330 332 358 4 0 356 342 320 333 340 329 312 305 312 322 328 329 324 313 295 280 246 198 188 204 189 193 199 201 207 216 231 232 226 218 197 185 192 201 206 215 216 212 220 204 185 250 250 191 207
317 317 316 315 315 314 312 308 305 301 299 302 306 292 274 277 277 295 305 301 300 309 313 318 321 315 308 301 297 298 297 296 300 304 303 307 325 327 311 346 5 355 351 344 326 337 349 345 343 347 343 338 338 331 323 320 319 305 263 200 178 187 189 191 196 203 211 220 235 238 238 243 222 192 188 196 203 211 221 227 215 189 200 237 236 207 214
316 315 314 313 312 310 308 306 304 299 293 291 289 269 269 279 277 293 306 298 293 300 303 304 306 306 305 302 295 292 290 287 285 292 302 299 306 318 309 327 350 349 347 348 334 335 339 333 338 344 335 329 333 327 316 320 343 335 295 225 169 143 185 192 195 203 208 216 232 243 247 252 247 214 193 194 203 207 214 230 230 213 221 231 219 216 223
314 313 312 311 311 307 305 305 304 298 295 290 273 247 256 271 275 297 317 300 290 296 299 300 301 301 301 298 294 301 307 309 305 297 292 291 295 313 311 313 324 331 335 334 321 318 326 322 322 326 322 323 329 323 306 314 333 331 314 290 190 168 197 206 205 214 207 206 217 234 246 252 256 251 219 200 201 203 204 215 228 235 239 234 218 223 241
312 312 311 310 309 306 303 302 301 297 290 281 265 248 255 263 271 296 307 290 293 304 304 303 301 295 297 301 311 322 326 322 320 309 293 291 300 315 311 305 311 319 323 321 313 313 316 311 308 309 303 298 300 291 282 301 314 313 310 310 285 192 186 178 178 230 233 209 213 222 232 246 254 255 248 222 205 203 204 201 205 218 228 234 228 223 247
310 310 311 311 308 304 301 298 296 294 281 266 259 264 267 271 277 130 269 283 294 299 293 293 291 282 284 291 297 309 317 318 321 318 306 307 313 312 309 316 332 323 314 317 316 313 311 303 299 300 291 281 278 274 273 281 286 284 293 303 292 240 171 136 129 145 259 278 254 224 215 227 243 244 247 250 238 234 233 207 197 203 210 217 222 215 217
309 309 310 311 308 304 302 298 294 291 274 258 252 265 275 283 297 175 260 281 288 293 290 285 276 275 289 296 294 299 309 314 319 314 291 301 308 304 305 316 321 285 283 293 300 304 302 295 291 290 284 282 282 278 277 274 270 268 271 283 289 276 176 130 125 127 186 254 281 268 217 218 234 227 224 244 252 254 264 254 218 208 213 207 199 207 210
307 308 309 310 308 304 301 298 294 288 275 265 261 263 269 277 285 264 261 280 286 293 290 282 284 293 296 295 294 298 304 310 315 307 292 292 292 288 287 287 274 255 251 255 275 306 311 303 302 299 288 288 288 283 280 276 272 269 257 256 276 275 206 129 122 122 142 213 257 280 248 236 244 179 189 218 241 244 252 265 272 272 269 255 186 191 193
308 308 308 308 307 304 302 299 295 288 281 272 257 255 265 277 280 256 254 274 279 282 285 286 288 291 290 290 293 300 305 308 311 312 312 303 291 285 283 276 271 264 248 239 281 340 328 314 315 308 302 307 299 284 281 279 276 275 264 253 266 272 243 148 133 151 155 171 206 231 249 295 327 314 162 191 278 251 240 260 290 313 353 61 75 77 79
312 310 310 309 307 306 303 300 294 287 283 273 257 257 267 270 263 248 256 265 269 278 288 291 288 289 296 302 305 307 308 308 310 318 322 308 292 289 291 285 288 289 270 209 56 8 327 318 327 319 318 322 307 291 291 285 277 272 268 264 276 299 288 196 154 172 180 179 209 255 286 297 281 271 19 68 102 136 148 146 4 16 56 90 91 62 43
319 315 314 313 310 308 306 302 296 290 286 279 268 265 266 264 260 256 240 255 281 287 277 266 283 301 315 314 307 307 308 309 316 321 313 302 296 298 298 298 308 313 322 84 87 351 296 316 319 315 323 322 310 305 307 306 293 271 262 268 289 299 288 215 202 186 178 181 193 245 260 252 235 238 327 118 122 115 113 110 75 16 17 66 90 73 56
326 322 320 320 316 313 311 306 300 295 289 285 279 273 270 269 263 256 246 246 273 277 271 281 296 304 306 300 298 301 307 314 322 324 318 318 319 309 306 316 319 309 308 80 106 160 255 261 266 277 299 309 316 312 307 321 322 297 290 310 302 290 301 242 224 182 169 190 200 216 230 222 202 204 194 104 104 104 96 83 70 316 338 35 77 74 63
331 329 327 328 325 319 316 312 306 302 296 289 282 276 274 273 265 253 242 229 243 257 276 287 292 294 291 292 298 300 306 313 310 311 313 312 312 311 315 326 329 320 319 336 124 124 223 247 245 245 260 288 311 311 310 318 320 325 339 335 299 282 9 51 261 190 141 164 207 235 236 202 197 193 157 128 97 91 98 150 228 259 346 34 64 66 60
333 332 330 328 326 322 319 315 308 305 301 293 285 280 277 278 273 255 237 240 255 258 264 269 274 280 283 290 298 297 297 299 293 284 285 289 303 318 317 317 322 328 331 306 198 143 202 240 233 235 241 269 301 299 312 316 309 337 354 341 317 324 23 79 266 258 135 137 204 251 236 194 194 196 154 135 110 85 110 198 214 130 50 50 61 66 59
333 333 331 329 327 323 320 316 310 306 303 298 292 284 281 286 281 256 235 231 253 254 268 283 285 283 280 285 292 292 290 292 290 295 296 292 325 319 302 299 317 326 328 301 217 184 202 230 236 243 230 172 286 292 305 306 302 333 357 351 348 351 354 1 313 295 157 147 184 283 305 302 193 114 43 58 109 136 183 189 159 86 77 68 58 59 54
335 335 334 332 330 326 323 319 315 310 305 299 295 289 286 292 290 262 240 230 255 266 273 273 267 268 273 279 283 284 286 287 285 285 282 284 345 338 308 307 355 336 326 323 252 216 212 224 225 235 225 186 192 285 298 286 281 312 355 357 346 339 336 337 319 310 226 147 139 121 266 286 261 143 80 10 92 190 183 127 94 77 75 73 62 54 45
337 336 335 333 330 328 326 322 316 311 307 299 297 294 290 291 295 277 253 241 248 273 280 272 268 273 278 279 280 283 282 276 272 281 287 277 290 338 302 293 323 338 351 352 306 269 274 250 233 241 256 198 162 193 311 306 290 320 8 3 339 343 353 343 334 349 14 10 7 353 279 286 359 109 135 100 114 167 139 101 89 73 66 69 67 54 40
337 337 336 333 330 326 324 322 318 312 307 301 295 291 288 288 295 294 269 239 236 252 269 276 279 278 276 275 273 269 265 265 267 271 281 288 263 235 263 282 279 161 119 353 301 285 312 308 282 269 259 249 182 172 289 302 302 347 12 27 309 2 31 321 288 336 351 245 298 312 302 301 86 93 121 113 91 80 87 89 84 72 65 66 68 58 47
337 337 336 334 333 329 324 323 321 316 311 310 301 289 286 289 293 297 287 256 249 262 267 268 270 271 269 269 267 260 254 254 258 257 255 259 267 255 260 278 282 137 136 184 194 265 299 287 285 293 272 263 253 166 231 249 265 329 358 44 253 342 24 296 249 341 352 309 302 307 303 316 91 90 87 90 82 71 74 79 79 75 70 69 70 67 60
335 334 334 334 333 332 328 324 323 320 316 313 305 292 288 289 292 297 291 271 262 283 278 265 259 266 275 277 276 270 259 251 252 253 248 242 249 266 266 267 266 145 161 186 180 179 285 281 278 278 274 297 5 138 231 250 249 318 341 332 312 2 22 8 318 357 1 337 319 305 307 344 53 65 63 68 74 75 71 71 76 79 75 71 69 69 67
331 331 332 332 332 332 330 325 323 322 319 314 308 301 292 288 292 296 285 269 279 304 296 287 278 279 283 283 281 280 272 261 255 250 243 238 235 242 254 256 244 209 175 171 166 158 268 294 291 286 294 323 335 13 19 303 316 349 348 325 324 4 14 1 335 347 1 299 292 287 297 10 45 51 55 61 71 77 75 73 76 75 72 68 63 59 61
328 328 328 329 330 330 329 326 322 319 317 313 309 303 293 288 290 287 273 269 285 274 268 282 287 289 295 296 292 291 288 277 265 251 245 244 239 235 241 249 248 237 194 161 153 150 181 254 277 283 294 302 285 316 357 283 286 294 280 260 275 343 349 343 326 323 311 282 284 284 295 21 40 40 43 50 61 73 75 74 73 71 70 66 62 57 56
326 325 324 324 326 326 326 326 323 319 316 315 310 302 292 286 285 278 265 261 274 268 264 270 291 305 310 302 293 288 281 275 270 259 253 253 245 234 232 236 241 247 250 216 175 161 201 244 262 265 274 292 287 276 246 268 289 284 265 258 123 287 313 336 305 288 269 245 276 293 305 3 27 27 33 42 57 70 72 70 67 68 69 71 70 65 59
324 324 323 322 322 322 323 323 322 320 318 316 312 303 293 287 284 276 263 252 238 248 288 289 293 305 306 298 293 290 280 273 271 260 250 247 239 227 223 226 229 232 232 227 230 233 238 247 256 264 280 303 298 274 240 245 273 268 260 241 129 179 225 121 261 270 250 195 251 292 309 349 10 18 27 35 49 66 71 68 67 68 67 68 72 68 60
322 320 320 320 318 315 315 316 316 317 319 320 317 310 300 291 283 275 264 249 236 237 290 292 284 293 299 298 300 301 294 280 267 253 245 242 234 223 216 213 217 224 219 212 230 251 254 249 255 260 228 173 222 290 277 236 249 268 299 332 294 250 226 186 241 275 266 204 208 256 328 28 16 21 32 34 40 59 69 66 65 68 66 64 67 67 62
315 313 313 315 314 312 311 310 310 310 313 318 317 307 295 285 272 260 235 236 242 249 282 293 289 292 295 292 295 305 310 300 280 259 250 248 241 228 214 200 200 213 217 213 227 247 255 248 257 258 216 162 178 282 285 266 266 289 347 334 302 272 251 212 231 271 258 204 172 140 101 76 39 31 40 39 38 50 61 60 61 65 66 64 65 64 63
310 309 308 308 308 308 307 309 312 312 309 310 311 303 295 322 21 110 128 274 286 283 267 275 285 286 287 287 284 303 314 303 286 266 255 253 249 237 221 202 183 191 205 216 244 269 278 259 257 259 195 165 220 266 287 298 282 290 338 328 301 272 270 267 259 271 258 188 140 120 100 82 61 51 50 47 46 49 52 51 52 59 63 63 62 63 62
310 308 306 305 305 306 305 307 312 311 297 281 266 257 265 275 279 277 279 285 289 287 264 275 287 285 294 304 300 303 301 286 270 261 252 243 236 226 222 216 196 193 186 151 104 312 280 259 258 263 134 155 200 245 260 254 255 284 314 320 306 293 313 334 2 346 325 331 129 122 105 88 90 87 76 66 63 62 60 52 46 48 57 61 62 61 58
312 311 309 308 306 304 303 304 306 302 292 279 268 265 267 274 282 287 288 285 278 257 234 281 291 281 291 307 310 316 317 300 283 312 273 234 204 172 206 219 206 197 182 147 141 213 250 252 258 277 120 169 193 253 254 228 240 305 317 335 6 6 359 6 29 37 22 21 69 105 110 107 105 103 99 93 80 70 69 66 58 53 54 55 55 51 48
317 317 315 310 304 299 300 303 302 294 285 274 268 269 272 278 284 280 258 247 253 251 246 262 275 280 295 314 314 314 317 320 6 30 342 282 276 165 199 205 184 193 200 164 179 215 232 245 252 236 194 197 193 239 243 195 51 338 331 3 32 14 12 22 33 41 35 31 57 76 81 85 90 90 91 93 89 82 78 72 66 63 58 52 48 40 32
325 324 317 308 302 301 303 302 289 271 263 258 259 266 269 268 270 257 224 209 225 270 257 234 245 279 297 311 299 301 310 326 5 33 356 319 321 306 204 185 178 200 233 354 247 228 233 43 109 205 240 224 210 229 229 87 52 352 346 36 47 20 25 36 39 42 33 30 49 58 57 63 73 70 66 73 82 87 88 85 79 77 72 62 55 45 35
331 326 316 308 307 305 304 290 243 226 243 251 254 269 278 272 266 253 232 221 225 244 270 276 260 270 294 310 308 309 317 331 355 12 281 310 316 318 2 47 34 263 265 261 242 239 84 85 133 263 272 259 245 226 87 86 80 59 63 68 64 62 68 57 44 50 57 56 55 55 55 57 62 65 63 62 64 71 83 90 91 90 87 83 73 60 52
329 322 316 313 311 301 280 247 219 221 244 259 267 280 287 277 254 241 232 224 221 221 233 278 265 260 277 284 278 303 316 317 337 344 242 231 321 332 350 64 184 248 251 227 229 274 55 91 291 287 283 325 9 42 60 68 76 85 80 76 71 66 67 65 55 56 67 69 64 65 71 71 67 65 62 58 56 59 66 76 83 86 90 98 102 98 90
331 327 318 307 298 284 271 262 257 271 283 285 283 283 274 231 216 223 212 200 205 203 204 244 255 251 251 255 260 287 314 293 281 293 291 23 31 324 285 202 183 202 238 236 226 300 16 78 37 358 64 80 49 37 28 6 359 73 85 86 85 72 42 47 67 70 74 79 76 76 82 80 74 70 66 58 53 50 48 59 72 71 69 78 84 86 96
337 330 311 267 246 307 318 318 318 318 311 292 263 243 206 179 217 238 208 192 207 206 200 227 244 234 229 253 266 259 215 231 266 268 175 83 70 208 243 267 182 178 203 229 206 170 115 91 70 70 85 81 359 3 2 348 349 47 68 78 103 116 99 67 50 20 51 94 102 107 104 99 92 89 89 81 69 60 52 53 61 61 56 57 58 56 57
345 336 318 311 325 320 316 315 312 310 305 261 198 216 257 210 204 228 239 239 247 228 204 217 243 233 222 240 263 259 201 205 260 274 168 155 165 199 214 249 213 152 152 233 245 114 91 81 74 102 111 88 359 2 6 348 335 358 37 41 66 105 107 97 78 342 31 71 75 74 81 85 85 85 91 89 84 83 77 65 59 58 56 53 50 44 38
343 339 317 309 310 307 305 304 297 288 277 233 212 230 227 208 208 250 287 258 255 259 222 219 243 245 224 223 239 253 218 176 192 249 229 170 176 212 204 198 209 60 73 242 305 74 83 72 49 49 69 72 53 5 355 349 342 350 359 359 11 85 108 108 103 78 55 59 62 61 64 66 64 62 69 69 64 71 80 76 67 59 55 55 51 37 30
323 312 297 295 300 302 299 293 277 242 221 243 262 253 241 243 242 94 239 240 241 274 278 241 240 253 251 227 220 224 213 168 167 196 225 213 210 228 222 211 346 12 28 75 123 111 87 73 77 73 55 50 59 49 31 22 14 10 0 349 350 56 93 89 82 75 62 51 48 57 74 86 83 71 69 67 55 50 61 74 78 70 57 55 55 45 37
316 314 305 297 300 309 316 312 293 291 287 285 297 310 319 322 318 285 274 257 177 182 243 250 264 277 265 232 219 251 273 262 208 193 188 202 220 225 193 85 24 4 358 4 36 62 68 59 71 80 58 8 15 51 49 33 30 35 9 329 330 54 79 78 77 78 71 56 46 46 53 62 63 61 65 68 63 53 50 55 62 65 57 51 50 48 44
305 309 317 300 281 313 358 359 334 348 1 338 320 329 336 333 330 329 327 335 359 352 243 221 312 323 307 196 164 308 305 273 243 225 176 159 212 232 123 69 18 344 356 51 32 41 65 65 60 62 47 12 14 33 35 21 22 27 355 319 353 63 78 78 77 78 75 64 57 55 52 50 50 51 53 55 56 54 48 46 51 57 58 54 49 46 44
293 284 340 332 307 322 29 25 7 13 356 318 313 329 328 319 319 329 334 333 330 325 319 327 331 314 304 262 157 164 161 154 211 301 258 198 320 26 51 81 291 320 55 71 47 30 52 63 53 36 27 20 13 9 9 10 9 353 326 346 58 70 70 65 65 70 67 59 56 58 59 56 53 52 52 56 59 60 58 53 53 54 57 58 54 46 44
273 236 37 347 324 333 24 13 350 341 299 274 279 287 293 298 305 311 315 321 322 317 320 339 346 319 312 321 352 97 109 81 45 10 293 288 24 53 82 173 202 38 49 57 58 51 49 48 36 12 9 14 7 358 2 9 2 348 353 69 83 81 80 78 76 74 73 69 66 67 70 71 72 75 78 78 76 74 73 71 69 65 61 57 50 45 50
273 175 102 16 319 328 33 23 306 277 255 257 272 277 272 271 280 293 305 317 316 305 307 323 335 315 310 318 336 351 23 76 83 12 23 36 39 76 151 60 36 41 42 48 62 71 71 64 44 8 358 3 10 10 10 6 356 349 3 47 61 61 68 75 77 79 84 86 83 80 82 80 74 75 78 80 77 75 73 71 70 71 71 67 55 50 57
287 117 101 19 300 308 349 313 271 272 267 255 260 277 283 287 314 339 342 330 315 311 316 328 345 331 315 309 341 9 17 31 21 346 37 67 47 45 56 42 35 34 37 46 60 75 85 85 76 40 12 13 20 18 12 8 5 2 9 40 55 54 53 57 61 63 67 71 72 75 80 80 74 69 69 70 69 69 68 65 59 56 59 62 57 51 52
266 196 139 183 218 236 245 225 238 292 305 297 287 302 329 357 2 354 343 333 329 323 315 306 316 343 311 294 4 34 18 5 356 350 359 28 33 36 43 41 39 40 41 44 52 62 59 56 54 42 27 23 23 19 13 11 14 10 5 15 36 50 57 59 60 60 56 57 60 58 57 65 72 71 64 59 58 62 68 71 66 58 50 49 52 54 52
271 206 211 353 19 357 301 272 340 341 338 344 348 348 356 12 3 339 326 332 335 322 309 301 109 70 319 326 13 38 21 1 4 11 16 22 28 36 46 44 40 38 39 40 45 48 46 43 39 33 28 24 23 21 15 12 18 20 6 353 357 24 49 54 54 53 49 47 50 53 53 54 57 60 61 60 57 55 53 49 50 53 50 40 32 34 41
275 294 347 12 27 15 354 9 25 10 351 347 346 339 338 350 350 335 317 307 309 319 346 9 14 2 6 16 25 19 339 338 8 28 32 26 17 20 40 46 40 35 45 50 47 44 42 40 36 34 33 30 28 26 17 11 18 21 360 340 347 16 42 49 49 49 46 41 39 41 48 51 51 51 49 43 38 39 37 30 31 39 41 33 26 32 48
321 346 354 14 22 9 4 29 39 16 333 334 341 334 331 340 342 333 325 333 356 14 23 18 7 10 24 24 14 328 338 14 29 34 34 30 23 31 46 52 46 46 55 57 46 37 40 41 36 34 38 36 25 14 11 23 24 5 347 3 25 33 34 36 38 42 48 49 45 43 46 47 45 44 41 34 27 24 20 15 18 27 36 38 41 49 59